Tucson, AZ

12:49 AM MST on May 27, 2017 (GMT -0700)
Tucson International

Weather History for KTUS - June, 2013

Change the Weather History Date:

Wednesday, June 12, 2013

  Actual Average Record
Temperature  
Mean Temperature 92 °F 84 °F  
Max Temperature 108 °F 100 °F 109 °F (1995)
Min Temperature 75 °F 68 °F 49 °F (1913)
Degree Days  
Heating Degree Days 0 0  
Month to date heating degree days 0 0  
Since 1 June heating degree days 0 0  
Since 1 July heating degree days 1363 1511  
Cooling Degree Days 27 19  
Month to date cooling degree days 287 211  
Year to date cooling degree days 998 713  
Since 1 June cooling degree days 287 211  
Growing Degree Days 42 (Base 50)    
Moisture  
Dew Point 28 °F    
Average Humidity 11    
Maximum Humidity 16    
Minimum Humidity 5    
Precipitation  
Precipitation 0.00 in 0.00 in 0.38 in (1973)
Month to date precipitation 0.00 0.04  
Year to date precipitation 1.74 3.11  
Snow  
Snow 0.00 in - - ()
Month to date snowfall 0.0  
Snow Depth 0.00 in    
Sea Level Pressure  
Sea Level Pressure 29.78 in    
Wind  
Wind Speed 9 mph (WNW)    
Max Wind Speed 20 mph    
Max Gust Speed 27 mph    
Visibility 10 miles    
Events      
T = Trace of Precipitation, MM = Missing Value Source: NWS Daily Summary

Daily Weather History Graph

Daily Weather History Graph

Search for Another Location

Airport or City:

Trip Planner

Search our weather history database for the weather conditions in past years. The results will help you decide how hot, cold, wet, or windy it might be!

Date:

Astronomy

Jun. 12, 2013 Rise Set
Actual Time 5:16 AM MST 7:30 PM MST
Civil Twilight 4:48 AM MST 7:58 PM MST
Nautical Twilight 4:14 AM MST 8:33 PM MST
Astronomical Twilight 3:36 AM MST 9:10 PM MST
Moon 8:49 AM MST (6/12) 10:20 PM MST (6/12)
Length of Visible Light 15h 10m
Length of Day
14h 13m
Waxing Crescent, 15% of the Moon is Illuminated
Jun 12
Waxing Crescent
Jun 16
First Quarter
Jun 23
Full
Jun 29
Last Quarter
Jul 8
New

Hourly Weather History & Observations

Time (MST) Temp. Dew Point Humidity Pressure Visibility Wind Dir Wind Speed Gust Speed Precip Events Conditions
12:53 AM 84.0 °F 28.0 °F 13% 29.77 in 10.0 mi WSW 6.9 mph - N/A   Clear
1:53 AM 82.0 °F 28.0 °F 14% 29.77 in 10.0 mi SW 4.6 mph - N/A   Clear
2:53 AM 79.0 °F 26.1 °F 14% 29.78 in 10.0 mi SE 6.9 mph - N/A   Clear
3:53 AM 78.1 °F 27.0 °F 15% 29.79 in 10.0 mi South 4.6 mph - N/A   Clear
4:53 AM 77.0 °F 27.0 °F 16% 29.80 in 10.0 mi ESE 5.8 mph - N/A   Clear
5:53 AM 75.9 °F 27.0 °F 16% 29.83 in 10.0 mi SSE 6.9 mph - N/A   Clear
6:53 AM 82.0 °F 28.9 °F 14% 29.85 in 10.0 mi SSE 5.8 mph - N/A   Clear
7:53 AM 84.9 °F 32.0 °F 15% 29.86 in 10.0 mi West 3.5 mph - N/A   Clear
8:53 AM 91.9 °F 27.0 °F 10% 29.86 in 10.0 mi Variable 3.5 mph - N/A   Clear
9:53 AM 93.9 °F 28.0 °F 10% 29.85 in 10.0 mi NW 4.6 mph - N/A   Clear
10:53 AM 98.1 °F 27.0 °F 8% 29.84 in 10.0 mi NW 4.6 mph - N/A   Clear
11:53 AM 100.0 °F 27.0 °F 8% 29.82 in 10.0 mi WNW 9.2 mph - N/A   Clear
12:53 PM 102.9 °F 28.0 °F 7% 29.79 in 10.0 mi West 10.4 mph 19.6 mph N/A   Clear
1:53 PM 105.1 °F 25.0 °F 6% 29.77 in 10.0 mi WNW 12.7 mph 17.3 mph N/A   Clear
2:53 PM 107.1 °F 25.0 °F 6% 29.75 in 10.0 mi NNW 13.8 mph 21.9 mph N/A   Clear
3:53 PM 108.0 °F 26.1 °F 6% 29.73 in 10.0 mi NNW 15.0 mph 23.0 mph N/A   Clear
4:53 PM 107.1 °F 25.0 °F 6% 29.71 in 10.0 mi NW 17.3 mph 23.0 mph N/A   Clear
5:53 PM 105.1 °F 25.0 °F 6% 29.71 in 10.0 mi NNW 17.3 mph 23.0 mph N/A   Clear
6:53 PM 102.0 °F 26.1 °F 7% 29.72 in 10.0 mi NNW 15.0 mph - N/A   Clear
7:53 PM 99.0 °F 27.0 °F 8% 29.73 in 10.0 mi NNW 10.4 mph - N/A   Clear
8:53 PM 97.0 °F 28.0 °F 9% 29.73 in 10.0 mi NW 9.2 mph - N/A   Clear
9:53 PM 93.0 °F 30.0 °F 11% 29.76 in 10.0 mi West 9.2 mph - N/A   Clear
10:53 PM 91.9 °F 34.0 °F 13% 29.76 in 10.0 mi WNW 11.5 mph - N/A   Clear
11:53 PM 87.1 °F 37.0 °F 17% 29.77 in 10.0 mi West 8.1 mph - N/A   Clear